Location: Newark
(52.4787°S, 179.0532°W)
Time: 19:31:06
(UTC+00:00)

Altair - All Passes

Search period start: 13 November 2019 00:00
Search period end: 23 November 2019 00:00
Orbit: 1502 x 1682 km, 47.2° (Epoch: 12 November)

Date Brightness Start Highest point End Pass type
(mag) Time Alt. Az. Time Alt. Az. Time Alt. Az.
13 Nov - 03:29:12 10° N 03:37:18 28° NE 03:45:21 10° E daylight
13 Nov - 05:30:52 10° NW 05:40:40 55° NNE 05:50:17 10° E daylight
13 Nov - 07:34:52 10° W 07:44:52 66° N 07:54:34 10° ENE daylight
13 Nov - 09:39:28 10° W 09:48:53 48° NNW 09:57:57 10° NE visible
13 Nov - 11:45:09 10° W 11:51:44 21° NW 11:58:10 10° N visible
14 Nov - 03:04:24 10° N 03:12:15 26° NE 03:20:04 10° E daylight
14 Nov - 05:05:46 10° NW 05:15:32 53° NNE 05:25:07 10° E daylight
14 Nov - 07:09:41 10° W 07:19:43 66° N 07:29:26 10° ENE daylight
14 Nov - 09:14:15 10° W 09:23:46 50° NNW 09:32:57 10° NE visible
14 Nov - 11:19:45 10° W 11:26:44 22° NW 11:33:33 10° N visible
15 Nov - 02:39:38 10° N 02:47:13 25° NE 02:54:45 10° E daylight
15 Nov - 04:40:41 10° NW 04:50:23 52° NNE 04:59:58 10° E daylight
15 Nov - 06:44:29 10° WNW 06:54:32 66° N 07:04:19 10° E daylight
15 Nov - 08:49:02 10° W 08:58:39 52° NNW 09:07:56 10° NE visible
15 Nov - 10:54:23 10° W 11:01:44 24° NW 11:08:53 10° N visible
16 Nov - 02:14:55 10° N 02:22:10 23° NE 02:29:24 10° E daylight
16 Nov - 04:15:37 10° NW 04:25:15 50° NNE 04:34:47 10° E daylight
16 Nov - 06:19:18 10° WNW 06:29:22 66° N 06:39:10 10° E daylight
16 Nov - 08:23:50 10° W 08:33:32 54° NNW 08:42:54 10° NE visible
16 Nov - 10:29:02 10° W 10:36:43 26° NW 10:44:10 10° N visible
17 Nov - 01:50:15 10° N 01:57:08 21° NE 02:04:02 10° E daylight
17 Nov - 03:50:34 10° NW 04:00:07 48° NNE 04:09:36 10° E daylight
17 Nov - 05:54:08 10° WNW 06:04:12 66° N 06:14:02 10° E daylight
17 Nov - 07:58:37 10° W 08:08:24 55° NNW 08:17:51 10° NE visible
17 Nov - 10:03:43 10° W 10:11:41 28° NW 10:19:25 10° N visible
18 Nov - 01:25:39 10° N 01:32:07 19° NE 01:38:36 10° E daylight
18 Nov - 03:25:32 10° NW 03:35:00 46° NNE 03:44:25 10° E daylight
18 Nov - 05:28:57 10° WNW 05:39:01 66° N 05:48:53 10° E daylight
18 Nov - 07:33:26 10° W 07:43:16 57° NNW 07:52:48 10° NE daylight
18 Nov - 09:38:26 10° W 09:46:38 30° NW 09:54:37 10° NNE visible
19 Nov - 01:01:07 10° NNE 01:07:07 18° NE 01:13:08 10° E daylight
19 Nov - 03:00:31 10° NW 03:09:53 44° NNE 03:19:13 10° E daylight
19 Nov - 05:03:47 10° WNW 05:13:51 65° N 05:23:44 10° E daylight
19 Nov - 07:08:13 10° W 07:18:07 59° NNW 07:27:43 10° ENE daylight
19 Nov - 09:13:09 10° W 09:21:35 32° NW 09:29:48 10° NNE visible
20 Nov - 00:36:40 10° NNE 00:42:07 16° NE 00:47:35 10° E daylight
20 Nov - 02:35:32 10° NNW 02:44:47 42° NNE 02:54:01 10° E daylight
20 Nov - 04:38:39 10° WNW 04:48:41 64° N 04:58:34 10° E daylight
20 Nov - 06:43:01 10° W 06:52:58 60° NNW 07:02:38 10° ENE daylight
20 Nov - 08:47:53 10° W 08:56:32 34° NW 09:04:57 10° NNE visible
20 Nov - 10:58:10 10° WNW 10:58:42 10° WNW 10:59:13 10° WNW visible
21 Nov - 00:12:20 10° NNE 00:17:07 14° NE 00:21:55 10° E daylight
21 Nov - 02:10:33 10° NNW 02:19:41 40° NE 02:28:49 10° E daylight
21 Nov - 04:13:30 10° WNW 04:23:31 63° N 04:33:25 10° E daylight
21 Nov - 06:17:49 10° W 06:27:49 62° NNW 06:37:32 10° ENE daylight
21 Nov - 08:22:37 10° W 08:31:28 36° NW 08:40:04 10° NNE visible
21 Nov - 10:30:50 10° WNW 10:33:45 12° WNW 10:36:38 10° NW visible
21 Nov - 23:48:12 10° NNE 23:52:09 13° ENE 23:56:06 10° E daylight
22 Nov - 01:45:36 10° NNW 01:54:35 38° NE 02:03:36 10° E daylight
22 Nov - 03:48:21 10° WNW 03:58:20 62° NNE 04:08:16 10° E daylight
22 Nov - 05:52:38 10° W 06:02:39 63° NNW 06:12:26 10° ENE daylight
22 Nov - 07:57:23 10° W 08:06:23 38° NW 08:15:09 10° NNE daylight
22 Nov - 10:04:45 10° W 10:08:47 13° WNW 10:12:47 10° NNW visible
22 Nov - 23:24:23 10° NE 23:27:10 11° ENE 23:29:58 10° ENE daylight
